TimeCDT,TemperatureF,Dew PointF,Humidity,Sea Level PressureIn,VisibilityMPH,Wind Direction,Wind SpeedMPH,Gust SpeedMPH,PrecipitationIn,Events,Conditions,WindDirDegrees,DateUTC
12:53 AM,39.9,37.0,89,29.83,10.0,SW,5.8,-,N/A,,Partly Cloudy,230,2013-10-20 05:53:00
1:53 AM,37.9,36.0,93,29.83,9.0,WSW,4.6,-,N/A,,Scattered Clouds,240,2013-10-20 06:53:00
2:53 AM,37.9,36.0,93,29.83,10.0,SW,5.8,-,N/A,,Partly Cloudy,230,2013-10-20 07:53:00
3:53 AM,37.9,36.0,93,29.83,9.0,WSW,3.5,-,N/A,,Partly Cloudy,240,2013-10-20 08:53:00
4:53 AM,37.9,36.0,93,29.84,10.0,WSW,3.5,-,N/A,,Clear,250,2013-10-20 09:53:00
5:53 AM,37.0,35.1,93,29.85,8.0,WSW,3.5,-,N/A,,Scattered Clouds,240,2013-10-20 10:53:00
6:53 AM,37.0,35.1,93,29.86,8.0,West,3.5,-,N/A,,Scattered Clouds,260,2013-10-20 11:53:00
7:53 AM,37.0,35.1,93,29.87,5.0,Calm,Calm,-,N/A,,Clear,0,2013-10-20 12:53:00
8:53 AM,39.9,37.0,89,29.89,8.0,West,5.8,-,N/A,,Clear,280,2013-10-20 13:53:00
9:53 AM,45.0,39.0,80,29.89,10.0,Calm,Calm,-,N/A,,Partly Cloudy,0,2013-10-20 14:53:00
10:53 AM,46.9,37.9,71,29.89,10.0,East,4.6,-,N/A,,Overcast,90,2013-10-20 15:53:00
11:53 AM,48.9,39.0,69,29.88,10.0,SE,10.4,-,N/A,,Mostly Cloudy,130,2013-10-20 16:53:00
12:53 PM,48.0,37.9,68,29.86,10.0,South,6.9,-,N/A,,Mostly Cloudy,170,2013-10-20 17:53:00
1:53 PM,46.9,39.9,77,29.82,10.0,SE,10.4,-,0.00,,Overcast,140,2013-10-20 18:53:00
2:53 PM,48.9,37.9,66,29.81,10.0,South,15.0,-,N/A,,Overcast,170,2013-10-20 19:53:00
3:53 PM,51.1,42.1,71,29.78,10.0,SSE,11.5,-,N/A,,Mostly Cloudy,160,2013-10-20 20:53:00
4:53 PM,53.1,44.1,71,29.76,10.0,South,9.2,-,N/A,,Mostly Cloudy,180,2013-10-20 21:53:00
5:53 PM,53.1,44.1,71,29.75,10.0,WSW,3.5,-,N/A,,Overcast,240,2013-10-20 22:53:00
6:53 PM,52.0,44.1,74,29.75,10.0,WSW,3.5,-,N/A,,Overcast,250,2013-10-20 23:53:00
7:53 PM,53.1,44.1,71,29.76,10.0,West,4.6,-,0.00,,Overcast,280,2013-10-21 00:53:00
8:53 PM,50.0,44.1,80,29.76,10.0,SW,5.8,-,N/A,,Scattered Clouds,230,2013-10-21 01:53:00
9:53 PM,50.0,44.1,80,29.77,10.0,SSW,9.2,-,N/A,,Clear,210,2013-10-21 02:53:00
10:53 PM,50.0,43.0,77,29.76,10.0,SW,6.9,-,N/A,,Scattered Clouds,230,2013-10-21 03:53:00
11:53 PM,51.1,43.0,74,29.77,10.0,WSW,8.1,-,N/A,,Scattered Clouds,240,2013-10-21 04:53:00